Simultaneous Nadir Overpasses (SNOs) Predictions

Prediction of SNOs between LANDSAT-8 and METOP-A Satellite Orbit:

Table of predicted SNOs for the next 14.0 days since TLE Epoch: 1/23/2015
Index Date (LANDSAT-8) Time (LANDSAT-8) Lat,Lon (LANDSAT-8) SZA (LANDSAT-8 ) Date (METOP-A) Time (METOP-A) Lat,Lon (METOP-A) SZA (METOP-A ) Distance(km) Time Diff (sec)
1 01/25/2015 06:04:49 -81.12, -51.63 78.22 01/25/2015 06:04:13 -81.12, -51.65 78.24 0.79 36
2 01/25/2015 06:54:14 81.15, 116.39 101.83 01/25/2015 06:54:52 81.14, 116.46 101.85 1.21 38
3 01/28/2015 01:39:02 -81.11, 14.66 78.97 01/28/2015 01:38:38 -81.12, 14.80 78.96 2.51 24
4 01/28/2015 02:28:27 81.14,-177.33 101.08 01/28/2015 02:29:18 81.13,-177.47 101.09 2.45 51
5 01/30/2015 21:13:14 -81.12, 81.19 79.72 01/30/2015 21:13:03 -81.12, 81.23 79.72 0.64 11
6
